TimeCST,TemperatureF,Dew PointF,Humidity,Sea Level PressureIn,VisibilityMPH,Wind Direction,Wind SpeedMPH,Gust SpeedMPH,PrecipitationIn,Events,Conditions,WindDirDegrees,DateUTC
12:15 AM,35.6,35.6,100,29.90,0.8,East,4.6,-,N/A,,Overcast,90,2012-11-07 06:15:00
12:35 AM,35.6,35.6,100,29.91,0.8,East,4.6,-,N/A,,Overcast,80,2012-11-07 06:35:00
12:55 AM,35.6,35.6,100,29.91,0.8,ENE,3.5,-,N/A,,Overcast,70,2012-11-07 06:55:00
1:15 AM,35.6,35.6,100,29.92,0.8,ENE,3.5,-,N/A,,Overcast,60,2012-11-07 07:15:00
1:35 AM,35.6,35.6,100,29.92,0.8,NNE,3.5,-,N/A,,Overcast,30,2012-11-07 07:35:00
1:55 AM,35.6,35.6,100,29.93,0.8,Calm,Calm,-,N/A,,Overcast,0,2012-11-07 07:55:00
2:15 AM,35.6,35.6,100,29.94,0.5,NNE,3.5,-,N/A,Fog,Fog,20,2012-11-07 08:15:00
2:55 AM,35.6,35.6,100,29.95,0.8,NNE,3.5,-,N/A,,Overcast,20,2012-11-07 08:55:00
3:15 AM,35.6,35.6,100,29.95,1.0,North,3.5,-,N/A,,Overcast,360,2012-11-07 09:15:00
3:35 AM,35.6,35.6,100,29.95,1.2,North,3.5,-,N/A,,Overcast,10,2012-11-07 09:35:00
3:55 AM,35.6,35.6,100,29.97,1.2,North,4.6,-,N/A,,Overcast,350,2012-11-07 09:55:00
4:15 AM,35.6,35.6,100,29.97,1.2,North,4.6,-,N/A,,Overcast,360,2012-11-07 10:15:00
4:35 AM,35.6,35.6,100,29.98,1.2,North,3.5,-,N/A,,Overcast,350,2012-11-07 10:35:00
4:55 AM,35.6,35.6,100,29.98,1.2,North,3.5,-,N/A,,Overcast,10,2012-11-07 10:55:00
5:15 AM,35.6,35.6,100,29.99,1.0,North,3.5,-,N/A,,Overcast,350,2012-11-07 11:15:00
5:35 AM,35.6,35.6,100,30.00,1.0,NNW,3.5,-,N/A,,Overcast,340,2012-11-07 11:35:00
5:55 AM,35.6,35.6,100,30.01,1.0,Calm,Calm,-,N/A,,Overcast,0,2012-11-07 11:55:00
6:15 AM,33.8,33.8,100,30.02,0.8,NW,3.5,-,N/A,,Overcast,320,2012-11-07 12:15:00
6:35 AM,33.8,33.8,100,30.02,0.8,North,4.6,-,N/A,,Overcast,350,2012-11-07 12:35:00
6:55 AM,33.8,33.8,100,30.04,1.0,NNW,6.9,-,N/A,,Overcast,340,2012-11-07 12:55:00
7:15 AM,35.6,35.6,100,30.05,1.2,North,4.6,-,N/A,,Overcast,360,2012-11-07 13:15:00
7:35 AM,35.6,35.6,100,30.05,1.2,NNW,4.6,-,N/A,,Overcast,340,2012-11-07 13:35:00
7:55 AM,35.6,35.6,100,30.06,1.2,NNW,4.6,-,N/A,,Overcast,330,2012-11-07 13:55:00
8:15 AM,35.6,35.6,100,30.07,1.2,NNW,6.9,-,N/A,,Overcast,340,2012-11-07 14:15:00
8:35 AM,35.6,35.6,100,30.07,1.5,North,6.9,-,N/A,,Overcast,350,2012-11-07 14:35:00
8:55 AM,35.6,35.6,100,30.08,1.5,North,8.1,-,N/A,,Overcast,350,2012-11-07 14:55:00
9:15 AM,37.4,35.6,93,30.08,1.8,North,5.8,-,N/A,,Overcast,360,2012-11-07 15:15:00
9:35 AM,37.4,37.4,100,30.08,1.8,NNE,4.6,-,N/A,,Overcast,20,2012-11-07 15:35:00
9:55 AM,37.4,37.4,100,30.09,1.8,North,4.6,-,N/A,,Overcast,360,2012-11-07 15:55:00
10:15 AM,37.4,37.4,100,30.09,2.0,North,4.6,-,N/A,,Overcast,360,2012-11-07 16:15:00
10:35 AM,37.4,37.4,100,30.10,2.5,North,4.6,-,N/A,,Overcast,350,2012-11-07 16:35:00
10:55 AM,37.4,37.4,100,30.10,2.0,NNW,4.6,-,N/A,,Overcast,330,2012-11-07 16:55:00
11:15 AM,37.4,37.4,100,30.09,2.0,NNW,4.6,-,N/A,,Drizzle,340,2012-11-07 17:15:00
11:35 AM,37.4,37.4,100,30.09,2.0,NW,3.5,-,N/A,Rain,Rain,310,2012-11-07 17:35:00
11:55 AM,39.2,37.4,93,30.09,2.0,NNW,3.5,-,N/A,,Drizzle,330,2012-11-07 17:55:00
12:15 PM,39.2,37.4,93,30.09,1.8,Calm,Calm,-,N/A,,Drizzle,0,2012-11-07 18:15:00
12:35 PM,39.2,37.4,93,30.09,2.0,NW,4.6,-,N/A,,Light Drizzle,310,2012-11-07 18:35:00
12:55 PM,41.0,37.4,87,30.09,2.0,NW,3.5,-,N/A,,Overcast,320,2012-11-07 18:55:00
1:15 PM,41.0,37.4,87,30.09,2.5,NNW,3.5,-,N/A,,Overcast,340,2012-11-07 19:15:00
1:35 PM,41.0,37.4,87,30.09,2.5,NW,3.5,-,N/A,,Overcast,310,2012-11-07 19:35:00
1:55 PM,41.0,37.4,87,30.09,4.0,Calm,Calm,-,N/A,,Overcast,0,2012-11-07 19:55:00
2:15 PM,41.0,37.4,87,30.09,4.0,Calm,Calm,-,N/A,,Overcast,0,2012-11-07 20:15:00
2:35 PM,41.0,35.6,81,30.09,4.0,NW,3.5,-,N/A,,Overcast,320,2012-11-07 20:35:00
2:55 PM,41.0,37.4,87,30.09,4.0,Calm,Calm,-,N/A,,Overcast,0,2012-11-07 20:55:00
3:15 PM,41.0,35.6,81,30.10,5.0,Calm,Calm,-,N/A,,Overcast,0,2012-11-07 21:15:00
3:35 PM,41.0,35.6,81,30.10,5.0,Calm,Calm,-,N/A,,Overcast,0,2012-11-07 21:35:00
3:55 PM,41.0,37.4,87,30.11,4.0,Calm,Calm,-,N/A,,Overcast,0,2012-11-07 21:55:00
4:15 PM,41.0,37.4,87,30.11,5.0,Calm,Calm,-,N/A,,Overcast,0,2012-11-07 22:15:00
4:35 PM,39.2,37.4,93,30.12,5.0,Calm,Calm,-,N/A,,Overcast,0,2012-11-07 22:35:00
4:55 PM,39.2,35.6,87,30.12,5.0,NW,3.5,-,N/A,,Overcast,310,2012-11-07 22:55:00
5:15 PM,39.2,35.6,87,30.12,5.0,NW,3.5,-,N/A,,Overcast,310,2012-11-07 23:15:00
5:35 PM,39.2,35.6,87,30.13,5.0,Calm,Calm,-,N/A,,Overcast,0,2012-11-07 23:35:00
5:55 PM,39.2,35.6,87,30.13,5.0,Calm,Calm,-,N/A,,Overcast,0,2012-11-07 23:55:00
6:15 PM,39.2,35.6,87,30.14,5.0,Calm,Calm,-,N/A,,Overcast,0,2012-11-08 00:15:00
6:35 PM,37.4,35.6,93,30.14,5.0,NNW,3.5,-,N/A,,Overcast,330,2012-11-08 00:35:00
6:55 PM,37.4,35.6,93,30.14,5.0,North,3.5,-,N/A,,Overcast,350,2012-11-08 00:55:00
7:15 PM,37.4,35.6,93,30.14,5.0,NNW,3.5,-,N/A,,Overcast,340,2012-11-08 01:15:00
7:35 PM,37.4,35.6,93,30.15,5.0,Calm,Calm,-,N/A,,Overcast,0,2012-11-08 01:35:00
7:55 PM,37.4,35.6,93,30.15,5.0,Calm,Calm,-,N/A,,Overcast,0,2012-11-08 01:55:00
8:15 PM,37.4,35.6,93,30.15,5.0,Calm,Calm,-,N/A,,Overcast,0,2012-11-08 02:15:00
8:35 PM,37.4,35.6,93,30.16,7.0,Calm,Calm,-,N/A,,Overcast,0,2012-11-08 02:35:00
8:55 PM,37.4,35.6,93,30.15,5.0,Calm,Calm,-,N/A,,Overcast,0,2012-11-08 02:55:00
9:15 PM,37.4,35.6,93,30.16,5.0,Calm,Calm,-,N/A,,Overcast,0,2012-11-08 03:15:00
9:35 PM,37.4,35.6,93,30.15,5.0,Calm,Calm,-,N/A,,Overcast,0,2012-11-08 03:35:00
9:55 PM,37.4,35.6,93,30.15,5.0,Calm,Calm,-,N/A,,Overcast,0,2012-11-08 03:55:00
10:15 PM,37.4,35.6,93,30.15,7.0,Calm,Calm,-,N/A,,Overcast,0,2012-11-08 04:15:00
10:35 PM,35.6,35.6,100,30.15,5.0,Calm,Calm,-,N/A,,Overcast,0,2012-11-08 04:35:00
10:55 PM,35.6,35.6,100,30.15,4.0,Calm,Calm,-,N/A,,Overcast,0,2012-11-08 04:55:00
11:15 PM,35.6,35.6,100,30.15,4.0,Calm,Calm,-,N/A,,Overcast,0,2012-11-08 05:15:00
11:35 PM,35.6,35.6,100,30.14,4.0,Calm,Calm,-,N/A,,Overcast,0,2012-11-08 05:35:00
11:55 PM,35.6,35.6,100,30.15,4.0,Calm,Calm,-,N/A,,Overcast,0,2012-11-08 05:55:00